| time (UTC) | temp F | wind direction | speed MPH | gust MPH | rain 1hr in | rain 24hr in | rain mn in | humidity % | barometer mb |
| 20260906130338 | 65 | 132 | 3.0 | 7.0 | 0.00 | 0.00 | 0.00 | 100 | 1028.1 |
| 20260906130055 | 65 | 128 | 1.0 | 7.0 | 0.00 | 0.00 | 0.00 | 100 | 1028.1 |
| 20260906130013 | 65 | 128 | 1.0 | 7.0 | 0.00 | 0.00 | 0.00 | 100 | 1028.1 |
| 20260906123009 | 62 | 89 | 0.0 | 0.0 | 0.00 | 0.00 | 0.00 | 100 | 1027.9 |
| 20260906120342 | 59 | 89 | 0.0 | 0.0 | 0.00 | 0.00 | 0.00 | 100 | 1027.6 |
| 20260906120128 | 59 | 89 | 0.0 | 0.0 | 0.00 | 0.00 | 0.00 | 100 | 1027.6 |
| 20260906113052 | 59 | 89 | 0.0 | 0.0 | 0.00 | 0.00 | 0.00 | 100 | 1027.3 |
| 20260906110417 | 59 | 89 | 0.0 | 0.0 | 0.00 | 0.00 | 0.00 | 100 | 1027.1 |
| 20260906110010 | 59 | 89 | 0.0 | 0.0 | 0.00 | 0.00 | 0.00 | 100 | 1027.0 |
| 20260906103012 | 59 | 89 | 0.0 | 0.0 | 0.00 | 0.00 | 0.00 | 100 | 1026.9 |
| 20260906100423 | 58 | 89 | 0.0 | 2.0 | 0.00 | 0.00 | 0.00 | 100 | 1026.9 |
| 20260906100319 | 58 | 89 | 0.0 | 2.0 | 0.00 | 0.00 | 0.00 | 100 | 1026.9 |
| 20260906100022 | 58 | 89 | 0.0 | 2.0 | 0.00 | 0.00 | 0.00 | 100 | 1026.9 |
| 20260906093036 | 56 | 89 | 0.0 | 2.0 | 0.00 | 0.00 | 0.00 | 100 | 1026.7 |
| 20260906090355 | 56 | 89 | 0.0 | 0.0 | 0.00 | 0.00 | 0.00 | 100 | 1026.7 |
| 20260906090057 | 56 | 89 | 0.0 | 0.0 | 0.00 | 0.00 | 0.00 | 100 | 1026.6 |
| 20260906090015 | 56 | 89 | 0.0 | 0.0 | 0.00 | 0.00 | 0.00 | 100 | 1026.6 |
| 20260906083032 | 56 | 89 | 0.0 | 0.0 | 0.00 | 0.00 | 0.00 | 100 | 1026.5 |
| 20260906080331 | 57 | 89 | 0.0 | 0.0 | 0.00 | 0.00 | 0.00 | 100 | 1026.4 |
| 20260906080047 | 57 | 89 | 0.0 | 0.0 | 0.00 | 0.00 | 0.00 | 100 | 1026.4 |
| 20260906073024 | 56 | 89 | 0.0 | 0.0 | 0.00 | 0.00 | 0.00 | 99 | 1026.1 |
| 20260906070340 | 56 | 89 | 0.0 | 0.0 | 0.00 | 0.00 | 0.00 | 99 | 1025.9 |
| 20260906070039 | 56 | 89 | 0.0 | 0.0 | 0.00 | 0.00 | 0.00 | 99 | 1025.9 |
| 20260906063123 | 56 | 89 | 0.0 | 0.0 | 0.00 | 0.00 | 0.00 | 99 | 1025.8 |
| 20260906060327 | 57 | 89 | 0.0 | 0.0 | 0.00 | 0.00 | 0.00 | 99 | 1025.8 |
| 20260906060047 | 57 | 89 | 0.0 | 0.0 | 0.00 | 0.00 | 0.00 | 99 | 1025.8 |
| 20260906053045 | 57 | 89 | 0.0 | 0.0 | 0.00 | 0.00 | 0.00 | 99 | 1025.9 |
| 20260906050429 | 58 | 89 | 0.0 | 0.0 | 0.00 | 0.00 | 0.00 | 99 | 1026.1 |
| 20260906050018 | 58 | 89 | 0.0 | 0.0 | 0.00 | 0.00 | 0.00 | 99 | 1026.0 |
| 20260906043015 | 58 | 89 | 0.0 | 0.0 | 0.00 | 0.00 | 0.00 | 99 | 1026.0 |
| 20260906040353 | 58 | 89 | 0.0 | 0.0 | 0.00 | 0.00 | 0.00 | 98 | 1025.9 |
| 20260906040017 | 58 | 89 | 0.0 | 0.0 | 0.00 | 0.00 | 0.00 | 98 | 1025.9 |
| 20260906033016 | 59 | 89 | 0.0 | 1.0 | 0.00 | 0.00 | 0.00 | 98 | 1026.0 |
| 20260906030418 | 59 | 89 | 0.0 | 0.0 | 0.00 | 0.00 | 0.00 | 98 | 1025.9 |
| 20260906030336 | 59 | 89 | 0.0 | 0.0 | 0.00 | 0.00 | 0.00 | 98 | 1025.9 |
| 20260906030058 | 59 | 89 | 0.0 | 0.0 | 0.00 | 0.00 | 0.00 | 98 | 1025.9 |
| 20260906023011 | 60 | 89 | 0.0 | 0.0 | 0.00 | 0.00 | 0.00 | 97 | 1025.8 |
| 20260906020436 | 60 | 89 | 0.0 | 0.0 | 0.00 | 0.00 | 0.00 | 96 | 1025.7 |
| 20260906020029 | 60 | 89 | 0.0 | 0.0 | 0.00 | 0.00 | 0.00 | 96 | 1025.7 |
| 20260906013026 | 61 | 89 | 0.0 | 0.0 | 0.00 | 0.00 | 0.00 | 94 | 1025.5 |
| 20260906010342 | 63 | 89 | 0.0 | 0.0 | 0.00 | 0.00 | 0.00 | 93 | 1025.1 |
| 20260906010019 | 63 | 89 | 0.0 | 0.0 | 0.00 | 0.00 | 0.00 | 92 | 1025.1 |
| 20260906003052 | 65 | 89 | 0.0 | 0.0 | 0.00 | 0.00 | 0.00 | 88 | 1025.1 |
| 20260906000414 | 68 | 89 | 0.0 | 0.0 | 0.00 | 0.00 | 0.00 | 82 | 1024.7 |
| 20260906000030 | 68 | 89 | 0.0 | 0.0 | 0.00 | 0.00 | 0.00 | 81 | 1024.7 |
| 20260905233027 | 71 | 89 | 0.0 | 2.0 | 0.00 | 0.00 | 0.00 | 72 | 1024.8 |
| 20260905230327 | 74 | 93 | 1.0 | 3.0 | 0.00 | 0.00 | 0.00 | 66 | 1024.7 |
| 20260905230023 | 74 | 102 | 1.0 | 4.0 | 0.00 | 0.00 | 0.00 | 66 | 1024.7 |
| 20260905223022 | 75 | 73 | 2.0 | 4.0 | 0.00 | 0.00 | 0.00 | 63 | 1024.7 |
| 20260905220356 | 76 | 329 | 3.0 | 6.0 | 0.00 | 0.00 | 0.00 | 60 | 1024.6 |
| 20260905220038 | 76 | 34 | 2.0 | 4.0 | 0.00 | 0.00 | 0.00 | 61 | 1024.7 |
| 20260905213011 | 76 | 61 | 4.0 | 9.0 | 0.00 | 0.00 | 0.00 | 57 | 1024.6 |
| 20260905210354 | 77 | 64 | 2.0 | 8.0 | 0.00 | 0.00 | 0.00 | 64 | 1024.5 |
| 20260905210025 | 76 | 285 | 3.0 | 8.0 | 0.00 | 0.00 | 0.00 | 61 | 1024.5 |
| 20260905203100 | 77 | 19 | 5.0 | 13.0 | 0.00 | 0.00 | 0.00 | 65 | 1024.5 |
| 20260905200425 | 77 | 315 | 4.0 | 9.0 | 0.00 | 0.00 | 0.00 | 66 | 1024.6 |
| 20260905200020 | 77 | 14 | 4.0 | 11.0 | 0.00 | 0.00 | 0.00 | 65 | 1024.6 |
| 20260905190409 | 77 | 60 | 4.0 | 10.0 | 0.00 | 0.00 | 0.00 | 69 | 1024.7 |
| 20260905190022 | 77 | 96 | 4.0 | 11.0 | 0.00 | 0.00 | 0.00 | 69 | 1024.7 |
| 20260905183058 | 77 | 15 | 2.0 | 9.0 | 0.00 | 0.00 | 0.00 | 70 | 1024.8 |
| 20260905180425 | 77 | 350 | 5.0 | 10.0 | 0.00 | 0.00 | 0.00 | 70 | 1024.8 |
| 20260905173112 | 78 | 360 | 2.0 | 9.0 | 0.00 | 0.01 | 0.00 | 75 | 1024.8 |
| 20260905173030 | 78 | 360 | 2.0 | 9.0 | 0.00 | 0.01 | 0.00 | 75 | 1024.8 |
| 20260905170407 | 77 | 49 | 4.0 | 9.0 | 0.00 | 0.01 | 0.00 | 73 | 1025.0 |
| 20260905170108 | 77 | 350 | 3.0 | 9.0 | 0.00 | 0.01 | 0.00 | 72 | 1024.9 |
| 20260905163032 | 77 | 35 | 1.0 | 7.0 | 0.00 | 0.06 | 0.00 | 76 | 1025.2 |
| 20260905160329 | 76 | 128 | 2.0 | 5.0 | 0.00 | 0.06 | 0.00 | 80 | 1025.3 |
| 20260905160104 | 76 | 96 | 2.0 | 5.0 | 0.00 | 0.06 | 0.00 | 81 | 1025.4 |
| 20260905153106 | 75 | 342 | 2.0 | 8.0 | 0.00 | 0.10 | 0.00 | 82 | 1025.2 |
| 20260905150318 | 72 | 59 | 2.0 | 6.0 | 0.00 | 0.10 | 0.00 | 91 | 1024.9 |
| 20260905150020 | 72 | 78 | 2.0 | 6.0 | 0.00 | 0.10 | 0.00 | 91 | 1024.8 |
| 20260905143040 | 72 | 98 | 3.0 | 4.0 | 0.00 | 0.19 | 0.00 | 93 | 1024.6 |
| 20260905140321 | 71 | 126 | 1.0 | 5.0 | 0.00 | 0.19 | 0.00 | 95 | 1024.4 |
| 20260905140034 | 71 | 161 | 2.0 | 6.0 | 0.00 | 0.19 | 0.00 | 95 | 1024.5 |
| 20260905133018 | 71 | 103 | 2.0 | 4.0 | 0.00 | 0.19 | 0.00 | 100 | 1024.4 |